Date String (YYYY-MM-DD hh:mm:ss) UTC,Instrument flags,Ambient pressure (hPa),Sample flow (lpm),Bypass flow (lpm),Sample temperature (°C),Ambient temperature (°C),ASC tube jacket temperature (°C),LED temperature (°C),Box temperature (°C),Sample RH (%),Span deviation,Mass concentration (μg/m³),Mass concentration (μg/m³),Mass concentration (μg/m³)
DateTimeUTC,F1_M11,P_M11,Q1_M11,Q2_M11,T1_M11,T2_M11,T3_M11,T4_M11,T5_M11,U1_M11,ZSPAN_M11,X0_M11,X2_M11,X1_M11
2023-02-20 07:00:00,,0815.3,5.05,0.00,22.2,23.1,00.0,30.8,24.3,09.4,0000.0,0006.93,0001.80,0000.98
2023-02-20 07:01:00,,0815.3,4.96,0.00,22.2,22.5,00.0,30.9,24.2,09.5,0000.0,0006.98,0001.79,0000.98
2023-02-20 07:02:00,,0815.1,4.99,0.00,22.2,22.0,00.0,30.9,24.1,09.3,0000.0,0007.12,0001.82,0000.98
2023-02-20 07:03:00,,0815.1,5.02,0.00,22.2,21.5,00.0,31.0,24.0,09.3,0000.0,0007.01,0001.81,0000.97
2023-02-20 07:04:00,,0815.4,4.97,0.00,22.2,21.1,00.0,31.0,23.9,09.2,0000.0,0006.95,0001.80,0000.95
2023-02-20 07:05:00,,0815.4,5.01,0.00,22.1,20.8,00.0,31.0,23.8,09.2,0000.0,0007.91,0001.79,0000.96
2023-02-20 07:06:00,,0815.3,5.00,0.00,22.1,20.6,00.0,31.0,23.7,09.3,0000.0,0008.21,0001.80,0000.98
2023-02-20 07:07:00,,0815.3,5.00,0.00,22.1,20.5,00.0,31.0,23.7,09.3,0000.0,0008.33,0001.83,0000.98
2023-02-20 07:08:00,,0815.2,4.99,0.00,22.0,20.4,00.0,31.0,23.7,09.2,0000.0,0008.41,0001.84,0000.98
2023-02-20 07:09:00,,0815.3,5.00,0.00,22.0,20.3,00.0,31.0,23.7,09.3,0000.0,0007.06,0001.76,0000.97
2023-02-20 07:10:00,,0815.4,4.99,0.00,22.0,20.2,00.0,31.0,23.6,09.5,0000.0,0006.45,0001.73,0000.96
2023-02-20 07:11:00,,0815.1,5.00,0.00,22.0,20.1,00.0,31.0,23.6,09.6,0000.0,0005.88,0001.70,0000.96
2023-02-20 07:12:00,,0815.0,5.00,0.00,22.0,20.1,00.0,30.9,23.6,09.6,0000.0,0005.86,0001.71,0000.94
2023-02-20 07:13:00,,0815.2,4.99,0.00,21.9,20.1,00.0,30.9,23.6,09.6,0000.0,0005.47,0001.66,0000.91
2023-02-20 07:14:00,,0815.0,5.00,0.00,21.9,20.1,00.0,30.9,23.6,09.6,0000.0,0005.32,0001.58,0000.90
2023-02-20 07:15:00,,0814.9,4.99,0.00,21.9,20.1,00.0,30.9,23.6,09.6,0000.0,0005.64,0001.56,0000.89
2023-02-20 07:16:00,,0814.8,5.01,0.00,21.9,20.1,00.0,30.9,23.6,09.6,0000.0,0004.80,0001.48,0000.87
2023-02-20 07:17:00,,0814.8,5.01,0.00,21.9,20.0,00.0,30.9,23.5,09.5,0000.0,0003.66,0001.45,0000.83
2023-02-20 07:18:00,,0815.0,5.00,0.00,21.8,19.9,00.0,30.9,23.5,09.6,0000.0,0003.47,0001.38,0000.81
2023-02-20 07:19:00,,0815.4,5.00,0.00,21.9,20.7,00.0,30.8,23.7,09.6,0000.0,0003.21,0001.32,0000.78
2023-02-20 07:20:00,,0815.5,4.95,0.00,22.0,22.0,00.0,30.7,24.0,09.4,0000.0,0003.17,0001.30,0000.77
2023-02-20 07:21:00,,0815.9,4.98,0.00,22.1,22.5,00.0,30.8,24.1,09.4,0000.0,0003.16,0001.30,0000.76
2023-02-20 07:22:00,,0815.1,4.98,0.00,22.2,22.1,00.0,30.8,24.1,09.3,0000.0,0003.16,0001.27,0000.73
2023-02-20 07:23:00,,0814.7,5.01,0.00,22.2,21.7,00.0,30.9,24.0,09.3,0000.0,0003.11,0001.23,0000.72
2023-02-20 07:24:00,,0814.8,5.01,0.00,22.2,21.4,00.0,30.9,24.0,09.4,0000.0,0003.02,0001.20,0000.70
2023-02-20 07:25:00,,0815.1,4.99,0.00,22.2,21.2,00.0,31.0,23.9,09.4,0000.0,0002.86,0001.15,0000.68
2023-02-20 07:26:00,,0815.0,4.98,0.00,22.1,20.9,00.0,31.0,23.9,09.5,0000.0,0002.62,0001.16,0000.66
2023-02-20 07:27:00,,0815.2,5.00,0.00,22.1,20.7,00.0,31.0,23.8,09.4,0000.0,0002.35,0001.15,0000.65
2023-02-20 07:28:00,,0815.3,4.99,0.00,22.1,20.5,00.0,31.0,23.8,09.4,0000.0,0002.21,0001.11,0000.64
2023-02-20 07:29:00,,0814.9,4.99,0.00,22.1,20.3,00.0,31.0,23.7,09.5,0000.0,0002.17,0001.08,0000.63
2023-02-20 07:30:00,,0815.0,5.00,0.00,22.0,20.2,00.0,31.0,23.7,09.5,0000.0,0002.27,0001.10,0000.63
2023-02-20 07:31:00,,0815.2,5.01,0.00,22.0,20.2,00.0,31.0,23.7,09.6,0000.0,0002.18,0001.08,0000.63
2023-02-20 07:32:00,,0815.3,5.00,0.00,22.0,20.2,00.0,30.9,23.7,09.6,0000.0,0002.20,0001.07,0000.62
2023-02-20 07:33:00,,0815.0,5.00,0.00,22.0,20.2,00.0,30.9,23.7,09.2,0000.0,0002.14,0001.06,0000.63
2023-02-20 07:34:00,,0814.9,5.01,0.00,22.0,21.0,00.0,30.9,23.8,09.1,0000.0,0002.15,0001.08,0000.64
2023-02-20 07:35:00,,0815.1,4.99,0.00,22.1,22.4,00.0,30.8,24.2,09.1,0000.0,0002.19,0001.09,0000.65
2023-02-20 07:36:00,,0815.0,5.00,0.00,22.3,23.3,00.0,30.9,24.4,09.0,0000.0,0002.38,0001.14,0000.67
2023-02-20 07:37:00,,0814.8,5.03,0.00,22.4,23.0,00.0,30.9,24.4,09.1,0000.0,0002.42,0001.14,0000.69
2023-02-20 07:38:00,,0814.9,5.00,0.00,22.4,22.3,00.0,31.0,24.3,09.0,0000.0,0002.42,0001.15,0000.71
2023-02-20 07:39:00,,0814.8,5.02,0.00,22.4,21.9,00.0,31.1,24.2,09.0,0000.0,0002.48,0001.19,0000.72
2023-02-20 07:40:00,,0814.8,5.00,0.00,22.3,21.6,00.0,31.1,24.2,09.0,0000.0,0002.44,0001.20,0000.74
2023-02-20 07:41:00,,0814.9,4.98,0.00,22.3,21.3,00.0,31.1,24.1,08.9,0000.0,0002.44,0001.23,0000.76
2023-02-20 07:42:00,,0814.9,5.00,0.00,22.3,21.1,00.0,31.1,24.1,09.0,0000.0,0002.72,0001.29,0000.77
2023-02-20 07:43:00,,0814.8,5.00,0.00,22.3,21.0,00.0,31.1,24.1,08.9,0000.0,0002.80,0001.33,0000.79
2023-02-20 07:44:00,,0814.8,4.98,0.00,22.3,20.9,00.0,31.1,24.0,09.0,0000.0,0002.93,0001.38,0000.81
2023-02-20 07:45:00,,0814.9,4.99,0.00,22.3,20.8,00.0,31.1,24.0,09.0,0000.0,0003.00,0001.42,0000.82
2023-02-20 07:46:00,,0814.7,5.01,0.00,22.2,20.6,00.0,31.1,23.9,09.1,0000.0,0003.78,0001.40,0000.83
2023-02-20 07:47:00,,0815.0,5.01,0.00,22.2,20.5,00.0,31.1,23.9,09.1,0000.0,0004.07,0001.40,0000.84
2023-02-20 07:48:00,,0815.0,5.03,0.00,22.2,20.4,00.0,31.1,23.8,09.1,0000.0,0003.99,0001.41,0000.83
2023-02-20 07:49:00,,0815.0,5.01,0.00,22.1,20.3,00.0,31.1,23.8,09.1,0000.0,0004.04,0001.42,0000.83
2023-02-20 07:50:00,,0815.1,5.00,0.00,22.1,20.4,00.0,31.1,23.8,09.2,0000.0,0005.02,0001.41,0000.82
2023-02-20 07:51:00,,0814.7,5.01,0.00,22.1,20.4,00.0,31.1,23.8,09.2,0000.0,0005.26,0001.45,0000.81
2023-02-20 07:52:00,,0814.8,5.00,0.00,22.1,20.4,00.0,31.1,23.8,09.2,0000.0,0005.26,0001.46,0000.80
2023-02-20 07:53:00,,0814.8,4.99,0.00,22.1,20.4,00.0,31.1,23.8,09.2,0000.0,0005.26,0001.42,0000.79
2023-02-20 07:54:00,,0814.9,5.01,0.00,22.1,20.4,00.0,31.1,23.8,09.2,0000.0,0005.59,0001.42,0000.76
2023-02-20 07:55:00,,0815.1,5.01,0.00,22.1,20.4,00.0,31.1,23.8,09.3,0000.0,0005.77,0001.44,0000.75
2023-02-20 07:56:00,,0815.1,5.00,0.00,22.1,20.4,00.0,31.0,23.8,09.3,0000.0,0005.92,0001.45,0000.75
2023-02-20 07:57:00,,0814.9,5.01,0.00,22.1,20.4,00.0,31.0,23.8,09.2,0000.0,0005.45,0001.47,0000.74
2023-02-20 07:58:00,,0815.2,5.02,0.00,22.1,20.4,00.0,31.0,23.8,09.3,0000.0,0004.98,0001.45,0000.72
2023-02-20 07:59:00,,0815.2,4.99,0.00,22.1,20.4,00.0,31.0,23.8,09.3,0000.0,0004.99,0001.43,0000.71
